Time,TemperatureF,DewpointF,PressureIn,WindDirection,WindDirectionDegrees,WindSpeedMPH,WindSpeedGustMPH,Humidity,HourlyPrecipIn,Conditions,Clouds,dailyrainin,SoftwareType,DateUTC
2013-10-16 00:00:00,63.7,60.1,30.08,North,0,0.0,0.0,88,0.00,,,0.00,WUHU216HW,2013-10-16 04:00:00,
2013-10-16 00:01:00,63.7,60.1,30.08,North,0,0.0,0.0,88,0.00,,,0.00,WUHU216HW,2013-10-16 04:01:00,
2013-10-16 00:02:00,63.7,60.1,30.08,North,0,0.0,0.0,88,0.00,,,0.00,WUHU216HW,2013-10-16 04:02:00,
2013-10-16 00:07:00,63.7,60.1,30.08,North,0,0.0,0.0,88,0.00,,,0.00,WUHU216HW,2013-10-16 04:07:00,
2013-10-16 00:30:00,63.7,60.1,30.08,North,0,0.0,0.0,88,0.00,,,0.00,WUHU216HW,2013-10-16 04:30:00,
2013-10-16 00:35:00,63.7,60.1,30.08,North,0,0.0,0.0,88,0.00,,,0.00,WUHU216HW,2013-10-16 04:35:00,
2013-10-16 01:00:00,63.7,60.5,30.08,North,0,0.0,0.0,89,0.00,,,0.00,WUHU216HW,2013-10-16 05:00:00,
2013-10-16 01:05:00,63.7,60.5,30.08,North,0,0.0,0.0,89,0.00,,,0.00,WUHU216HW,2013-10-16 05:05:00,
2013-10-16 01:30:00,63.7,60.5,30.07,NNE,23,0.0,0.0,89,0.00,,,0.00,WUHU216HW,2013-10-16 05:30:00,
2013-10-16 01:35:00,63.7,60.5,30.07,NNE,23,0.0,0.0,89,0.00,,,0.00,WUHU216HW,2013-10-16 05:35:00,
2013-10-16 02:00:00,63.4,60.1,30.06,NNE,23,0.4,0.4,89,0.00,,,0.00,WUHU216HW,2013-10-16 06:00:00,
2013-10-16 02:05:00,63.4,60.1,30.06,NNE,23,0.4,0.4,89,0.00,,,0.00,WUHU216HW,2013-10-16 06:05:00,
2013-10-16 02:30:00,63.5,60.3,30.07,NNE,23,0.0,0.0,89,0.00,,,0.00,WUHU216HW,2013-10-16 06:30:00,
2013-10-16 02:35:00,63.5,60.3,30.07,NNE,23,0.0,0.0,89,0.00,,,0.00,WUHU216HW,2013-10-16 06:35:00,
2013-10-16 03:00:00,63.4,60.1,30.06,NNE,23,0.0,0.0,89,0.00,,,0.00,WUHU216HW,2013-10-16 07:00:00,
2013-10-16 03:05:00,63.4,60.1,30.06,NNE,23,0.0,0.0,89,0.00,,,0.00,WUHU216HW,2013-10-16 07:05:00,
2013-10-16 03:30:00,63.4,60.1,30.05,NNE,23,0.0,0.0,89,0.00,,,0.00,WUHU216HW,2013-10-16 07:30:00,
2013-10-16 03:35:00,63.4,60.1,30.05,NNE,23,0.0,0.0,89,0.00,,,0.00,WUHU216HW,2013-10-16 07:35:00,
2013-10-16 04:00:00,63.2,60.3,30.04,NNE,23,0.0,0.0,90,0.00,,,0.00,WUHU216HW,2013-10-16 08:00:00,
2013-10-16 04:05:00,63.2,60.3,30.04,NNE,23,0.0,0.0,90,0.00,,,0.00,WUHU216HW,2013-10-16 08:05:00,
2013-10-16 04:30:00,63.0,60.1,30.04,NNE,23,0.0,0.0,90,0.05,,,0.00,WUHU216HW,2013-10-16 08:30:00,
2013-10-16 04:35:00,63.0,60.1,30.04,NNE,23,0.0,0.0,90,0.05,,,0.00,WUHU216HW,2013-10-16 08:35:00,
2013-10-16 05:00:00,63.0,60.1,30.05,NNW,338,0.0,0.0,90,0.05,,,0.05,WUHU216HW,2013-10-16 09:00:00,
2013-10-16 05:05:00,63.0,60.1,30.05,NNW,338,0.0,0.0,90,0.05,,,0.05,WUHU216HW,2013-10-16 09:05:00,
2013-10-16 05:30:00,62.8,59.9,30.04,NNW,338,0.0,0.0,90,0.00,,,0.05,WUHU216HW,2013-10-16 09:30:00,
2013-10-16 05:35:00,62.8,59.9,30.04,NNW,338,0.0,0.0,90,0.00,,,0.05,WUHU216HW,2013-10-16 09:35:00,
2013-10-16 06:00:00,62.8,59.9,30.05,NNW,338,0.0,0.0,90,0.00,,,0.05,WUHU216HW,2013-10-16 10:00:00,
2013-10-16 06:05:00,62.8,59.9,30.05,NNW,338,0.0,0.0,90,0.00,,,0.05,WUHU216HW,2013-10-16 10:05:00,
2013-10-16 06:30:00,62.8,59.9,30.04,NNW,338,0.0,0.0,90,0.00,,,0.05,WUHU216HW,2013-10-16 10:30:00,
2013-10-16 06:35:00,62.8,59.9,30.04,NNW,338,0.0,0.0,90,0.00,,,0.05,WUHU216HW,2013-10-16 10:35:00,
2013-10-16 07:00:00,62.8,59.9,30.05,NNW,338,0.0,0.0,90,0.00,,,0.05,WUHU216HW,2013-10-16 11:00:00,
2013-10-16 07:05:00,62.8,59.9,30.05,NNW,338,0.0,0.0,90,0.00,,,0.05,WUHU216HW,2013-10-16 11:05:00,
2013-10-16 07:30:00,62.6,59.8,30.06,NNW,338,0.0,0.0,90,0.00,,,0.05,WUHU216HW,2013-10-16 11:30:00,
2013-10-16 07:35:00,62.6,59.8,30.06,NNW,338,0.0,0.0,90,0.00,,,0.05,WUHU216HW,2013-10-16 11:35:00,
2013-10-16 08:00:00,62.6,60.0,30.06,NNW,338,0.0,0.0,91,0.00,,,0.05,WUHU216HW,2013-10-16 12:00:00,
2013-10-16 08:05:00,62.6,60.0,30.06,NNW,338,0.0,0.0,91,0.00,,,0.05,WUHU216HW,2013-10-16 12:05:00,
2013-10-16 08:30:00,62.8,60.2,30.07,NNW,338,0.0,0.0,91,0.00,,,0.05,WUHU216HW,2013-10-16 12:30:00,
2013-10-16 08:35:00,62.8,60.2,30.07,NNW,338,0.0,0.0,91,0.00,,,0.05,WUHU216HW,2013-10-16 12:35:00,
2013-10-16 09:00:00,63.0,60.4,30.08,NNW,338,0.0,0.0,91,0.00,,,0.05,WUHU216HW,2013-10-16 13:00:00,
2013-10-16 09:05:00,63.0,60.4,30.08,NNW,338,0.0,0.0,91,0.00,,,0.05,WUHU216HW,2013-10-16 13:05:00,
2013-10-16 09:30:00,63.4,60.5,30.07,North,0,0.0,0.0,90,0.00,,,0.05,WUHU216HW,2013-10-16 13:30:00,
2013-10-16 09:35:00,63.4,60.5,30.07,North,0,0.0,0.0,90,0.00,,,0.05,WUHU216HW,2013-10-16 13:35:00,
2013-10-16 10:00:00,63.9,61.0,30.07,NNW,338,0.0,0.0,90,0.00,,,0.05,WUHU216HW,2013-10-16 14:00:00,
2013-10-16 10:05:00,63.9,61.0,30.07,NNW,338,0.0,0.0,90,0.00,,,0.05,WUHU216HW,2013-10-16 14:05:00,
2013-10-16 10:30:00,64.3,61.0,30.06,SE,135,0.0,0.0,89,0.00,,,0.05,WUHU216HW,2013-10-16 14:30:00,
2013-10-16 10:35:00,64.3,61.0,30.06,SE,135,0.0,0.0,89,0.00,,,0.05,WUHU216HW,2013-10-16 14:35:00,
2013-10-16 11:00:00,65.0,61.4,30.06,NNW,338,0.0,0.0,88,0.00,,,0.05,WUHU216HW,2013-10-16 15:00:00,
2013-10-16 11:05:00,65.0,61.4,30.06,NNW,338,0.0,0.0,88,0.00,,,0.05,WUHU216HW,2013-10-16 15:05:00,
2013-10-16 11:30:00,65.2,61.6,30.05,North,0,0.0,0.0,88,0.00,,,0.05,WUHU216HW,2013-10-16 15:30:00,
2013-10-16 11:35:00,65.2,61.6,30.05,North,0,0.0,0.0,88,0.00,,,0.05,WUHU216HW,2013-10-16 15:35:00,
2013-10-16 12:00:00,65.7,62.0,30.05,SW,225,0.0,0.0,88,0.00,,,0.05,WUHU216HW,2013-10-16 16:00:00,
2013-10-16 12:05:00,65.7,62.0,30.05,SW,225,0.0,0.0,88,0.00,,,0.05,WUHU216HW,2013-10-16 16:05:00,
2013-10-16 12:30:00,66.1,62.0,30.05,SE,135,0.9,0.9,87,0.00,,,0.05,WUHU216HW,2013-10-16 16:30:00,
2013-10-16 12:35:00,66.1,62.0,30.05,SE,135,0.9,0.9,87,0.00,,,0.05,WUHU216HW,2013-10-16 16:35:00,
2013-10-16 13:00:00,66.2,62.2,30.04,SSW,203,0.0,0.0,87,0.00,,,0.05,WUHU216HW,2013-10-16 17:00:00,
2013-10-16 13:05:00,66.2,62.2,30.04,SSW,203,0.0,0.0,87,0.00,,,0.05,WUHU216HW,2013-10-16 17:05:00,
2013-10-16 13:30:00,66.6,62.6,30.02,SSE,158,0.0,0.0,87,0.00,,,0.05,WUHU216HW,2013-10-16 17:30:00,
2013-10-16 13:35:00,66.6,62.6,30.02,SSE,158,0.0,0.0,87,0.00,,,0.05,WUHU216HW,2013-10-16 17:35:00,
2013-10-16 14:00:00,67.0,62.7,30.02,ENE,68,0.0,0.0,86,0.00,,,0.05,WUHU216HW,2013-10-16 18:00:00,
2013-10-16 14:05:00,67.0,62.7,30.02,ENE,68,0.0,0.0,86,0.00,,,0.05,WUHU216HW,2013-10-16 18:05:00,
2013-10-16 14:30:00,67.9,63.2,30.01,SSE,158,1.1,1.1,85,0.00,,,0.05,WUHU216HW,2013-10-16 18:30:00,
2013-10-16 14:35:00,67.9,63.2,30.01,SSE,158,1.1,1.1,85,0.00,,,0.05,WUHU216HW,2013-10-16 18:35:00,
2013-10-16 15:00:00,68.0,63.0,30.00,SW,225,0.0,0.0,84,0.00,,,0.05,WUHU216HW,2013-10-16 19:00:00,
2013-10-16 15:05:00,68.0,63.0,30.00,SW,225,0.0,0.0,84,0.00,,,0.05,WUHU216HW,2013-10-16 19:05:00,
2013-10-16 15:30:00,69.1,63.7,30.00,SE,135,1.8,1.8,83,0.00,,,0.05,WUHU216HW,2013-10-16 19:30:00,
2013-10-16 15:35:00,69.1,63.7,30.00,SE,135,1.8,1.8,83,0.00,,,0.05,WUHU216HW,2013-10-16 19:35:00,
2013-10-16 16:00:00,70.2,64.1,29.99,SSE,158,0.4,0.4,81,0.00,,,0.05,WUHU216HW,2013-10-16 20:00:00,
2013-10-16 16:05:00,70.2,64.1,29.99,SSE,158,0.4,0.4,81,0.00,,,0.05,WUHU216HW,2013-10-16 20:05:00,
2013-10-16 16:30:00,70.0,63.5,29.99,ESE,113,1.1,1.1,80,0.00,,,0.05,WUHU216HW,2013-10-16 20:30:00,
2013-10-16 16:35:00,70.0,63.5,29.99,ESE,113,1.1,1.1,80,0.00,,,0.05,WUHU216HW,2013-10-16 20:35:00,
2013-10-16 17:00:00,69.8,63.4,29.99,SE,135,1.1,1.1,80,0.00,,,0.05,WUHU216HW,2013-10-16 21:00:00,
2013-10-16 17:05:00,69.8,63.4,29.99,SE,135,1.1,1.1,80,0.00,,,0.05,WUHU216HW,2013-10-16 21:05:00,
2013-10-16 17:30:00,69.5,63.0,29.98,SSW,203,0.0,0.0,80,0.00,,,0.05,WUHU216HW,2013-10-16 21:30:00,
2013-10-16 17:35:00,69.5,63.0,29.98,SSW,203,0.0,0.0,80,0.00,,,0.05,WUHU216HW,2013-10-16 21:35:00,
2013-10-16 18:00:00,68.9,62.9,29.98,SSE,158,0.0,0.0,81,0.00,,,0.05,WUHU216HW,2013-10-16 22:00:00,
2013-10-16 18:05:00,68.9,62.9,29.98,SSE,158,0.0,0.0,81,0.00,,,0.05,WUHU216HW,2013-10-16 22:05:00,
2013-10-16 18:30:00,68.2,62.6,29.98,SSE,158,0.0,0.0,82,0.00,,,0.05,WUHU216HW,2013-10-16 22:30:00,
2013-10-16 18:35:00,68.2,62.6,29.98,SSE,158,0.0,0.0,82,0.00,,,0.05,WUHU216HW,2013-10-16 22:35:00,
2013-10-16 19:00:00,67.3,62.0,29.99,SSE,158,0.0,0.0,83,0.00,,,0.05,WUHU216HW,2013-10-16 23:00:00,
2013-10-16 19:05:00,67.3,62.0,29.99,SSE,158,0.0,0.0,83,0.00,,,0.05,WUHU216HW,2013-10-16 23:05:00,
2013-10-16 19:30:00,66.2,61.2,30.00,SSE,158,0.0,0.0,84,0.00,,,0.05,WUHU216HW,2013-10-16 23:30:00,
2013-10-16 19:35:00,66.2,61.2,30.00,SSE,158,0.0,0.0,84,0.00,,,0.05,WUHU216HW,2013-10-16 23:35:00,
2013-10-16 20:00:00,65.7,61.4,30.00,SSE,158,0.0,0.0,86,0.00,,,0.05,WUHU216HW,2013-10-17 00:00:00,
2013-10-16 20:05:00,65.7,61.4,30.00,SSE,158,0.0,0.0,86,0.00,,,0.05,WUHU216HW,2013-10-17 00:05:00,
2013-10-16 20:30:00,65.2,60.8,30.00,SSE,158,0.0,0.0,86,0.00,,,0.05,WUHU216HW,2013-10-17 00:30:00,
2013-10-16 20:35:00,65.2,60.8,30.00,SSE,158,0.0,0.0,86,0.00,,,0.05,WUHU216HW,2013-10-17 00:35:00,
2013-10-16 21:00:00,64.8,60.6,30.00,SSE,158,0.0,0.0,86,0.00,,,0.05,WUHU216HW,2013-10-17 01:00:00,
2013-10-16 21:05:00,64.8,60.6,30.00,SSE,158,0.0,0.0,86,0.00,,,0.05,WUHU216HW,2013-10-17 01:05:00,
2013-10-16 21:30:00,64.3,60.4,30.01,SSE,158,0.0,0.0,87,0.00,,,0.05,WUHU216HW,2013-10-17 01:30:00,
2013-10-16 21:35:00,64.3,60.4,30.01,SSE,158,0.0,0.0,87,0.00,,,0.05,WUHU216HW,2013-10-17 01:35:00,
2013-10-16 22:00:00,63.9,60.0,30.01,SSE,158,0.0,0.0,87,0.00,,,0.05,WUHU216HW,2013-10-17 02:00:00,
2013-10-16 22:05:00,63.9,60.0,30.01,SSE,158,0.0,0.0,87,0.00,,,0.05,WUHU216HW,2013-10-17 02:05:00,
2013-10-16 22:30:00,63.5,59.7,30.00,SSE,158,0.0,0.0,87,0.00,,,0.05,WUHU216HW,2013-10-17 02:30:00,
2013-10-16 22:35:00,63.5,59.7,30.00,SSE,158,0.0,0.0,87,0.00,,,0.05,WUHU216HW,2013-10-17 02:35:00,
2013-10-16 23:00:00,63.2,59.6,30.00,SSE,158,0.0,0.0,88,0.00,,,0.05,WUHU216HW,2013-10-17 03:00:00,
2013-10-16 23:05:00,63.2,59.6,30.00,SSE,158,0.0,0.0,88,0.00,,,0.05,WUHU216HW,2013-10-17 03:05:00,
2013-10-16 23:30:00,63.0,59.4,30.00,SSE,158,0.0,0.0,88,0.00,,,0.05,WUHU216HW,2013-10-17 03:30:00,
2013-10-16 23:35:00,63.0,59.4,30.00,SSE,158,0.0,0.0,88,0.00,,,0.05,WUHU216HW,2013-10-17 03:35:00,